Weather History for Baker Lake, NU

Change the Weather History Date:

Friday, November 30, 2012

  Actual Average Record
Temperature  
Mean Temperature -32 °F -  
Max Temperature -29 °F -13 °F 24 °F (1998)
Min Temperature -36 °F -25 °F -36 °F (2012)
Degree Days  
Heating Degree Days 98    
Moisture  
Dew Point -40 °F    
Average Humidity 64    
Maximum Humidity 75    
Minimum Humidity 50    
Precipitation  
Precipitation 0.00 in 0.01 in - ()
Sea Level Pressure  
Sea Level Pressure 30.16 in    
Wind  
Wind Speed 0 mph ()    
Max Wind Speed 2 mph    
Max Gust Speed -    
Visibility 16.6 miles    
Events      
Averages and records for this station are not official NWS values.
T = Trace of Precipitation, MM = Missing Value Source: Averaged Metar Reports

Daily Weather History Graph

Daily Weather History Graph

Search for Another Location

Airport:

Trip Planner

Search our weather history database for the weather conditions in past years. The results will help you decide how hot, cold, wet, or windy it might be!

Date:

Astronomy

Nov. 30, 2012 Rise Set
Actual Time 9:43 AM CST 2:42 PM CST
Civil Twilight 8:32 AM CST 3:53 PM CST
Nautical Twilight 7:26 AM CST 4:59 PM CST
Astronomical Twilight 6:27 AM CST 5:58 PM CST
Moon 4:45 PM CST (11/30) 11:11 AM CST (11/30)
Length of Visible Light 7h 21m
Length of Day
4h 59m
Waning Gibbous, 96% of the Moon is Illuminated
Nov 30
Waning Gibbous
Dec 6
Last Quarter
Dec 13
New
Dec 19
First Quarter
Dec 28
Full

Hourly Weather History & Observations

Time (CST) Temp. Dew Point Humidity Pressure Visibility Wind Dir Wind Speed Gust Speed Precip Events Conditions
12:00 AM -31 °F -36 °F 60% 30.14 in 15 mi Calm Calm - -  
12:00 AM -31.0 °F -38.2 °F 68% 30.14 in 15.0 mi Calm Calm - N/A   Clear
1:00 AM -31.0 °F -38.2 °F 68% 30.15 in 15.0 mi Calm Calm - N/A   Clear
2:00 AM -31.0 °F -41.8 °F 56% 30.17 in 15.0 mi Calm Calm - N/A   Clear
3:00 AM -32.8 °F -38.2 °F 75% 30.17 in 15.0 mi Calm Calm - N/A   Clear
4:00 AM -31.0 °F -40.0 °F 62% 30.17 in 15.0 mi Calm Calm - N/A   Clear
5:00 AM -29.2 °F -38.2 °F 62% 30.17 in 15.0 mi Calm Calm - N/A   Clear
6:00 AM -32 °F -39 °F 50% 30.17 in 15 mi Calm Calm - -  
6:00 AM -31.0 °F -40.0 °F 62% 30.17 in 15.0 mi Calm Calm - N/A   Clear
7:00 AM -29.2 °F -38.2 °F 62% 30.17 in 15.0 mi Calm Calm - N/A   Clear
8:00 AM -31.0 °F -40.0 °F 62% 30.17 in 15.0 mi Calm Calm - N/A   Clear
9:00 AM -36.4 °F -41.8 °F 75% 30.17 in 20.0 mi Calm Calm - N/A   Partly Cloudy
10:00 AM -32.8 °F -43.6 °F 56% 30.17 in 20.0 mi Calm Calm - N/A   Partly Cloudy
11:00 AM -31.0 °F -40.0 °F 62% 30.17 in 20.0 mi Calm Calm - N/A   Partly Cloudy
12:00 PM -32 °F -39 °F 50% 30.16 in 19 mi Calm Calm - -   Scattered Clouds
12:00 PM -31.0 °F -40.0 °F 62% 30.16 in 20.0 mi Calm Calm - N/A   Partly Cloudy
1:00 PM -31.0 °F -40.0 °F 62% 30.16 in 20.0 mi Calm Calm - N/A   Partly Cloudy
2:00 PM -32.8 °F -41.8 °F 62% 30.15 in 20.0 mi Calm Calm - N/A   Partly Cloudy
3:00 PM -36.4 °F -41.8 °F 75% 30.15 in 20.0 mi Calm Calm - N/A   Partly Cloudy
4:00 PM -32.8 °F -40.0 °F 68% 30.16 in 20.0 mi Calm Calm - N/A   Partly Cloudy
5:00 PM -34.6 °F -41.8 °F 68% 30.16 in 15.0 mi Calm Calm - N/A   Clear
6:00 PM -33 °F -40 °F 51% 30.15 in 15 mi Calm Calm - -  
6:00 PM -32.8 °F -40.0 °F 68% 30.15 in 15.0 mi Calm Calm - N/A   Clear
7:00 PM -32.8 °F -40.0 °F 68% 30.16 in 15.0 mi Calm Calm - N/A   Clear
8:00 PM -32.8 °F -40.0 °F 68% 30.14 in 15.0 mi Calm Calm - N/A   Clear
9:00 PM -34.6 °F -41.8 °F 68% 30.14 in 15.0 mi NW 1.2 mph - N/A   Partly Cloudy
10:00 PM -34.6 °F -41.8 °F 68% 30.14 in 15.0 mi West 2.3 mph - N/A   Clear
11:00 PM -34.6 °F -40.0 °F 75% 30.14 in 15.0 mi Calm Calm - N/A   Clear